CST,Max TemperatureF,Mean TemperatureF,Min TemperatureF,Max Dew PointF,MeanDew PointF,Min DewpointF,Max Humidity, Mean Humidity, Min Humidity, Max Sea Level PressureIn, Mean Sea Level PressureIn, Min Sea Level PressureIn, Max VisibilityMiles, Mean VisibilityMiles, Min VisibilityMiles, Max Wind SpeedMPH, Mean Wind SpeedMPH, Max Gust SpeedMPH,PrecipitationIn, CloudCover, Events, WindDirDegrees
2011-11-1,90,71,53,48,41,27,72,43,11,29.96,29.87,29.78,10,10,10,20,12,28,0.00,0,,163
2011-11-2,86,64,43,47,32,17,69,36,8,30.47,30.03,29.76,10,8,2,38,18,48,0.00,3,,327
2011-11-3,81,55,35,24,19,12,59,29,9,30.48,30.34,30.17,10,10,7,10,6,,0.00,0,,48
2011-11-4,73,64,54,23,18,15,28,19,14,30.12,29.96,29.81,10,10,9,22,14,32,0.00,0,,148
2011-11-5,86,68,52,34,24,16,37,23,8,29.83,29.72,29.60,10,10,10,26,19,37,0.00,1,,187
2011-11-6,80,64,48,55,39,31,70,43,20,29.95,29.85,29.78,10,10,10,16,6,23,0.00,0,,122
2011-11-7,84,70,55,59,40,17,90,44,9,29.86,29.76,29.66,10,10,9,22,14,30,0.00,1,,205
2011-11-8,66,57,45,25,16,2,40,23,8,30.20,30.01,29.82,10,10,10,24,14,34,0.00,0,,307
2011-11-9,55,45,35,30,25,21,73,46,29,30.45,30.37,30.21,10,10,10,14,6,18,0.00,0,,30
2011-11-10,61,47,33,24,19,15,61,35,17,30.50,30.37,30.22,10,10,10,15,7,,0.00,0,,186
2011-11-11,91,66,41,20,19,17,38,16,7,30.21,29.99,29.84,10,10,10,16,11,22,0.00,0,,201
2011-11-12,100,86,71,22,20,18,15,11,6,29.96,29.81,29.74,10,10,7,15,12,22,0.00,0,,231
2011-11-13,84,73,62,37,35,33,37,26,16,29.96,29.90,29.79,10,10,10,17,12,26,0.00,0,,227
2011-11-14,72,66,59,46,42,32,57,44,30,29.87,29.78,29.70,10,10,10,13,8,,0.00,1,,230
2011-11-15,73,63,53,45,36,27,74,42,18,29.93,29.80,29.72,10,10,10,17,12,24,0.00,0,,261
2011-11-16,73,60,46,34,30,22,59,38,16,30.24,29.99,29.82,10,10,10,15,12,22,0.00,0,,305
2011-11-17,61,46,30,35,25,18,66,46,24,30.42,30.23,30.06,10,10,10,15,9,21,0.00,0,,110
2011-11-18,81,62,42,44,37,22,85,50,11,30.03,29.88,29.75,10,10,10,16,11,23,0.00,0,,165
2011-11-19,80,65,50,45,28,15,80,36,10,29.87,29.80,29.75,10,10,8,18,10,23,0.00,0,,216
2011-11-20,73,62,51,58,35,19,86,41,19,30.00,29.93,29.85,10,10,10,12,6,,0.00,0,,133
2011-11-21,84,68,53,60,47,26,97,62,12,30.01,29.91,29.72,10,9,5,25,7,37,0.00,2,,247
2011-11-22,71,60,48,33,27,21,50,33,16,30.19,30.09,29.99,10,10,10,21,11,28,0.00,0,,282
2011-11-23,75,60,44,36,23,18,49,29,12,30.26,30.18,30.10,10,10,10,15,10,16,0.00,0,,174
2011-11-24,81,64,48,42,36,27,66,42,15,30.12,30.02,29.92,10,10,10,21,11,25,0.00,0,,155
2011-11-25,66,60,55,51,41,36,64,50,32,29.89,29.82,29.72,10,10,9,25,14,38,0.02,2,Rain,262
2011-11-26,52,42,33,37,20,3,64,38,15,30.53,30.23,29.87,10,8,4,25,14,36,0.00,5,,321
2011-11-27,55,42,28,8,4,0,37,23,11,30.56,30.43,30.25,10,10,10,16,9,17,0.00,0,,266
2011-11-28,73,58,44,11,7,4,23,15,8,30.22,30.08,29.98,10,10,10,17,14,24,0.00,0,,248
2011-11-29,59,50,39,20,17,10,45,28,20,30.26,30.19,30.03,10,10,10,12,8,,0.00,0,,275
2011-11-30,72,54,35,28,21,16,52,34,13,30.25,30.05,29.86,10,10,10,18,8,26,0.00,0,,169